岩本彗星

C/2018 Y1 ( Iwamoto )

English version
Home page
Updated on August 7, 2019

---------------------------------------------------------------------

・ プロフィール

発見日 2018年12月18日
発見光度 12等
発見者 Masayuki Iwamoto (Awa, Tokushima, Japan)

・ 写真集

・ 軌道要素

Epoch 2019 Feb. 6.0 TT = JDT 2458520.5
T 2019 Feb. 7.01827 TT                                  MPCW
q   1.2868936            (2000.0)            P               Q
z  +0.0087279      Peri.  358.04634     -0.85999427     +0.47737548
 +/-0.0001437      Node   147.48173     +0.47262615     +0.61183099
e   0.9887681      Incl.  160.39867     +0.19244319     +0.63069445
From 2504 observations 2018 Dec. 18-2019 May 3, mean residual 0".6.

・ 星図

・ 光度変化

        m1 = 7.0 + 5 logΔ + 15.0 log r

---------------------------------------------------------------------

軌道要素はM.P.E.C. 2019-J142に掲載されたものです。
星図はステラナビゲータ Ver.10 (アストロアーツ) で作成したものです。
光度グラフはComet for Windowsで作成したものです。

---------------------------------------------------------------------

Copyright(C) Seiichi Yoshida (comet@aerith.net). All rights reserved.